Вернуться в каталог

PRAETORIAN SDA_507

АктивенPO
NORAD 100065·PAYLOAD·🇺🇸 United States

Запущен Jul 16, 2026 с Vandenberg Space Force Base

Loading…

Ближайшие Пролёты (ближайшие 24 часа)

TLE

СвежийSource: Space-Track

Эпоха: Sep 14, 2026, 01:11 UTC

1 A0065U 26163G   26257.04955796  .00000146  00000-0  11719-3 0  9999
2 A0065  81.4804 255.8812 0013907  58.4031 301.8482 13.85381957  8206

Отслеживайте PRAETORIAN SDA_507 в реальном времени с AllMySat

Download on the App Store